Terminal Aerodrome Forecast
Issued by NWS Salt Lake City, UT

Home | Current Version | Previous Version | Text Only | Print | Product List | Glossary On
Versions: 1 2 3 4 5 6 7 8 9 10 11 12 13 14 15 16 17 18 19 20 21 22 23 24 25 26 27 28
000
FTUS45 KSLC 110851 AAA
TAFCDC
TAF AMD
KCDC 110851Z 1109/1206 VRB03KT 6SM BR BCFG SCT001
     FM111500 VRB04KT P6SM SCT200=

USA.gov is the U.S. government's official web portal to all federal, state and local government web resources and services.